ARABSAT-7B (BADR-8)

Last updated on Tue Sep 16 2025 00:02:51 GMT+0000 (Coordinated Universal Time)

1 56757U 23075A 25257.83941579 .00000130 00000+0 00000+0 0 9996 2 56757 0.0776 24.8399 0001476 342.4075 314.9992 1.00271175 8357
UTC large
Height (km)
Speed (km/s)
/
Latitude / Longitude
Inclination (degrees)
Orbital Period (minutes)
Azimuth
Elevation
Range (km)
Doppler Factor

Next 0 passes for location: London (51.5072 / 0.1276)

Sorry there are no passes over London.